Other Surface Observations
Issued by NWS

Home | Current Version | Previous Version | Text Only | Print | Product List | Glossary On
Versions: 1 2 3 4 5 6 7 8 9 10 11 12 13 14 15 16 17 18 19 20 21 22 23 24 25 26 27 28 29 30 31 32 33 34 35 36 37 38 39 40 41 42 43 44 45 46 47 48 49 50
422
SXUS52 KTAE 231118
OSOTAE
OSOTAE
North Florida/South Alabama/Southwest Georgia Weather Roundup
National Weather Service Tallahassee Florida
700 AM EDT THU MAR 23 2017

Note: "fair" indicates few or no clouds below 12,000 feet with no
significant weather and/or obstructions to visibility.

!FLZ017-115-028-034-025-231200
...North Florida...

CITY           SKY/WX    TMP DP  RH WIND       PRES   REMARKS
TALLAHASSEE    PTCLDY    63  55  75 E12       30.21R
APALACHICOLA   MOCLDY    66  60  81 E13G21    30.17R
PERRY          PTCLDY    61  55  82 NE5       30.22R
CROSS CITY     CLOUDY    61  55  82 NE5       30.21R
JACKSONVILLE   CLOUDY    64  58  80 NE13      30.24R
$$

!FLZ112-006-005-002-011-231200
...Florida Panhandle...

CITY           SKY/WX    TMP DP  RH WIND       PRES   REMARKS
MARIANNA       CLEAR     62  53  72 E7        30.21R
BONIFAY        PTSUNNY   61  51  70 NE5       30.22R
PANAMA CITY NW FAIR      62  52  69 NE5       30.18R
TYNDALL AFB    CLEAR     64  58  80 E6        30.18R
TYND DRONE APT FAIR      63  59  86 E9        30.18R
DE FUNIAK SPR  FAIR      59  45  58 NE8       30.21R
EGLIN AFB      PTCLDY    63  46  53 NE9       30.19R
DESTIN         CLEAR     67  52  58 NE9       30.19R
HURLBURT       PTCLDY    62  43  50 NE6       30.18R
CRESTVIEW      PTCLDY    58  43  57 NE3       30.21R
PENSACOLA      CLEAR     65  45  48 NE7       30.19R
$$

!ALZ063-066-231200
...South Alabama...

CITY           SKY/WX    TMP DP  RH WIND       PRES   REMARKS
DOTHAN         CLEAR     59  51  75 E6        30.26R
OZARK CAIRNS   CLEAR     55  44  67 NE7       30.22R
FT RUCKER HELI CLEAR     56  44  65 CALM      30.22R
RUCKER HELI 3  FAIR      57  45  64 E5        30.22R
RUCKER HELI 2  FAIR      59  46  63 E6        30.22R
FLORALA APT    CLEAR     56  43  61 NE6       30.23R
ANDALUSIA      CLEAR     58  40  51 E7        30.21R
TROY           CLEAR     52  35  52 NE5       30.24R
EUFALA         FAIR      56  47  71 NE5       30.25R
MOBILE         PTCLDY    59  48  67 E6        30.19R
$$

!GAZ120>161-231200
...Southwest and South Central Georgia...

CITY           SKY/WX    TMP DP  RH WIND       PRES   REMARKS
THOMASVILLE    FAIR      59  55  88 E9        30.25R
BAINBRIDGE     CLEAR     61  54  77 E12       30.24R
MOODY AFB      CLEAR     57  53  86 NE10      30.24R
VALDOSTA       PTCLDY    57  53  86 NE7       30.25R
MOULTRIE       CLEAR     59  54  82 CALM      30.26R
BLAKELY        CLEAR     63  54  72 E7        30.25R
ALBANY         CLEAR     59  52  77 E9        30.28R
TIFTON         FAIR      56  53  88 E6        30.27R
FITZGERALD     PTSUNNY   56  53  88 E6        30.31R
CORDELE        CLOUDY    61  50  65 E7        30.30R
AMERICUS       PTSUNNY   55  43  62 E3        30.30S
HOMERVILLE     FAIR      57  55  94 E6        30.26S
$$

!GMZ750-755-770-775-231200
...Coastal and Buoy Obs...

STATION/POSITION TIME  TEMP    WIND        PRES    VSBY  WAVE
                       AIR SEA DIR/SP/G                  HT/PER
                 (UTC) (F)     (DEG/KT/KT) (MB)    (MI)  (FT/S)
KEATON BEACH     1100   61      50/  9/ 13 1022.4R
CEDAR KEY        1100   64      50/ 10/ 13 1022.4R
C TOWER          1100   66      90/ 20/ 21 1022.1R
APALACHICOLA BUO 1050   69 67  110/ 12/ 14 1020.7R         2/ 5
PANAMA CITY BUOY 1050   71 71              1020.3R         2/ 4
MOBILE BUOY      1100   71 73   40/  6/  6 1021.3
ORANGE BCH AL BU 1050   68 68   70/ 16/ 17 1021.5R         2/ 3
$$




USA.gov is the U.S. government's official web portal to all federal, state and local government web resources and services.